Regional Weather Roundup
Issued by NWS

Home | Current Version | Previous Version | Graphics & Text | Print | Product List | Glossary On
Versions: 1 2 3 4 5 6 7 8 9 10 11 12 13 14 15 16 17 18 19 20 21 22 23 24 25 26 27 28 29 30 31 32 33 34 35 36 37 38 39 40 41 42 43 44 45 46 47 48 49 50
000
ASUS43 KOAX 251710
RWRNE

WEATHER ROUNDUP FOR NEBRASKA
NATIONAL WEATHER SERVICE OMAHA NE
1200 PM CDT WED APR 25 2018

NOTES: SATELLITE DATA IS BEING USED TO AUGMENT CLOUD COVER ABOVE
       12000 FEET.
       "FAIR" INDICATES FEW OR NO CLOUDS BELOW 12,000 FEET WITH NO
       SIGNIFICANT WEATHER AND/OR OBSTRUCTIONS TO VISIBILITY.


NEZ001>004-019>022-054>056-251800-
NEBRASKA PANHANDLE

CITY           SKY/WX    TMP DP  RH WIND       PRES   REMARKS
SCOTTSBLUFF    SUNNY     50  32  50 SE3       30.25F
ALLIANCE       SUNNY     50  29  44 W8        30.24F
CHADRON        SUNNY     54  28  36 SW15      30.20F
GORDON         FAIR      51  30  44 SW12G17   30.22F
KIMBALL        SUNNY     49  29  45 W8        30.27F
SIDNEY         SUNNY     49  28  44 W8        30.28F
$$

NEZ057>060-069>072-079>082-251800-
SOUTHWEST NEBRASKA

CITY           SKY/WX    TMP DP  RH WIND       PRES   REMARKS
NORTH PLATTE   SUNNY     53  30  41 NW10      30.27F
IMPERIAL       SUNNY     51  28  41 NW15G21   30.29F
LEXINGTON      MOSUNNY   50  34  53 N8        30.27F
MCCOOK         SUNNY     52  32  46 N13G22    30.28F
OGALLALA       SUNNY     51  29  42 NW7       30.28F
$$

NEZ005>010-023>029-035>040-094-251800-
NORTH CENTRAL NEBRASKA

CITY           SKY/WX    TMP DP  RH WIND       PRES   REMARKS
VALENTINE      SUNNY     54  30  40 SW8       30.23F
AINSWORTH      SUNNY     50  29  44 NE3       30.24F
BROKEN BOW     SUNNY     51  33  50 NW9G17    30.26F
O`NEILL        SUNNY     53  30  41 NW10      30.25F
ORD            SUNNY     51  32  48 NW8       30.25F
THEDFORD       SUNNY     52  26  35 NW9       30.26F
$$

NEZ041-046>049-061>064-073>077-083>087-251800-
SOUTH CENTRAL NEBRASKA

CITY           SKY/WX    TMP DP  RH WIND       PRES   REMARKS
GRAND ISLAND   CLOUDY    48  33  56 N12       30.27F
AURORA         CLOUDY    46  37  69 N12       30.26F
HASTINGS       CLOUDY    47  34  60 N12       30.26F
HEBRON         CLOUDY    47  40  77 N13G18    30.24F
HOLDREGE       PTSUNNY   48  37  65 N9        30.27F
KEARNEY        CLOUDY    48  35  60 N15       30.27F
YORK             N/A     46  43  87 NE9G17    30.26F
$$

NEZ011>018-030>034-042>045-251800-
NORTHEAST NEBRASKA

CITY           SKY/WX    TMP DP  RH WIND       PRES   REMARKS
NORFOLK        SUNNY     51  34  52 VRB5G16   30.23F
ALBION         SUNNY     50  34  53 N9        30.25F
BLAIR          CLOUDY    47  40  77 NW6       30.23F
COLUMBUS       PTSUNNY   49  39  68 VRB5      30.25F
FREMONT        PTSUNNY   52  39  61 NW3       30.25F
TEKAMAH        CLOUDY    50  38  63 N7        30.24F
WAYNE          SUNNY     52  35  52 N6        30.24F
$$

NEZ050>053-065>068-078-088>093-251800-
SOUTHEAST NEBRASKA

CITY           SKY/WX    TMP DP  RH WIND       PRES   REMARKS
LINCOLN        CLOUDY    49  40  71 N7        30.26F
OMAHA EPPLEY   CLOUDY    48  39  71 NW8       30.24F
BEATRICE       CLOUDY    46  42  85 NE10      30.24S
FALLS CITY     LGT RAIN  46  45  96 N12       30.20F
NEBRASKA CITY  DRIZZLE   46  45  96 N8        30.23S
PLATTSMOUTH    CLOUDY    46  41  84 NW10      30.23F
$$

NEZ044-045-051>053-067-251800-
OMAHA AREA

CITY           SKY/WX    TMP DP  RH WIND       PRES   REMARKS
OMAHA EPPLEY   CLOUDY    48  39  71 NW8       30.24F
BLAIR          CLOUDY    47  40  77 NW6       30.23F
FREMONT        PTSUNNY   52  39  61 NW3       30.25F
MILLARD        CLOUDY    48  41  76 NW8       30.24F
OFFUTT AFB     CLOUDY    47  38  72 N5        30.23S
PLATTSMOUTH    CLOUDY    46  41  84 NW10      30.23F
WAHOO          CLOUDY    46  38  75 NW10      30.25F
$$



USA.gov is the U.S. government's official web portal to all federal, state and local government web resources and services.